Torna al catalogo

DELTA 1 DEB

AttivoSSO
NORAD 21368·DEBRIS·🇺🇸 United States

Lanciato Jun 12, 1975 da Vandenberg Space Force Base

Loading…

Prossimi Passaggi (prossime 24 ore)

TLE

AggiornatoSource: Space-Track

Epoca: Sep 13, 2026, 10:44 UTC

1 21368U 75052CN  26256.44739484 -.00000017  00000-0  35012-4 0  9997
2 21368  99.5479  60.2542 0076006   6.4611  57.2454 13.59344579751494

Traccia DELTA 1 DEB in tempo reale con AllMySat

Download on the App Store